FW2182 Weather Reports


time (UTC)temp
C
wind
direction
speed
KPH
gust
KPH
rain 1hr
cm
rain 24hr
cm
rain mn
cm
humidity
%
barometer
mb
20260503223853 13 192 0.0 4.8 0.00 0.00 0.00 48 1013.7
20260503223314 13 250 0.0 1.6 0.00 0.00 0.00 48 1013.7
20260503222816 13 232 0.0 6.4 0.00 0.00 0.00 47 1013.7
20260503222320 13 270 0.0 6.4 0.00 0.00 0.00 46 1013.8
20260503221820 13 244 0.0 0.0 0.00 0.00 0.00 47 1013.9
20260503221322 13 222 0.0 1.6 0.00 0.00 0.00 46 1014.0
20260503220911 13 224 0.0 11.3 0.00 0.00 0.00 47 1014.0
20260503212312 13 237 0.0 6.4 0.00 0.00 0.00 44 1013.6
20260503211815 14 252 0.0 11.3 0.00 0.00 0.00 46 1013.6
20260503211317 14 215 0.0 4.8 0.00 0.00 0.00 44 1013.7
20260503210818 14 286 0.0 4.8 0.00 0.00 0.00 46 1013.6
20260503210319 14 252 0.0 12.9 0.00 0.00 0.00 45 1013.7
20260503205821 13 206 1.6 12.9 0.00 0.00 0.00 44 1013.9
20260503205323 13 261 0.0 11.3 0.00 0.00 0.00 48 1013.9
20260503204823 13 252 0.0 1.6 0.00 0.00 0.00 45 1014.0
20260503204345 13 201 0.0 16.1 0.00 0.00 0.00 47 1014.1
20260503203844 13 275 1.6 16.1 0.00 0.00 0.00 46 1014.1
20260503203325 13 280 0.0 8.0 0.00 0.00 0.00 47 1014.2
20260503202827 13 208 0.0 4.8 0.00 0.00 0.00 49 1014.1
20260503202329 13 262 0.0 8.0 0.00 0.00 0.00 49 1014.2
20260503201830 13 193 0.0 11.3 0.00 0.00 0.00 47 1014.2
20260503201331 13 240 0.0 14.5 0.00 0.00 0.00 46 1014.3
20260503200852 13 218 0.0 4.8 0.00 0.00 0.00 48 1014.3
20260503200331 13 236 0.0 17.7 0.00 0.00 0.00 47 1014.3
20260503195813 13 225 1.6 17.7 0.00 0.00 0.00 48 1014.3
20260503195314 14 248 0.0 14.5 0.00 0.00 0.00 48 1014.4
20260503194814 14 171 0.0 3.2 0.00 0.00 0.00 47 1014.6
20260503194316 14 220 0.0 8.0 0.00 0.00 0.00 48 1014.6
20260503131344 6 259 0.0 1.6 0.00 0.00 0.00 74 1017.5
20260503130845 5 281 0.0 1.6 0.00 0.00 0.00 73 1017.6
20260503130325 5 267 0.0 0.0 0.00 0.00 0.00 75 1017.5
20260503071312 2 244 0.0 0.0 0.00 0.03 0.00 88 1015.7
20260503070814 2 244 0.0 0.0 0.00 0.03 0.00 87 1015.8
20260503070315 2 244 0.0 0.0 0.00 0.03 0.00 87 1015.8
20260503054818 1 292 0.0 0.0 0.00 0.03 0.00 83 1015.9
20260503054319 1 292 0.0 0.0 0.00 0.03 0.00 83 1015.9
20260503053822 2 292 0.0 0.0 0.00 0.03 0.00 83 1015.9
20260503053322 2 292 0.0 0.0 0.00 0.03 0.00 82 1015.9
20260503052823 2 292 0.0 0.0 0.00 0.03 0.00 82 1016.0
20260503052326 2 292 0.0 0.0 0.00 0.03 0.00 82 1016.0
20260503051848 2 292 0.0 0.0 0.00 0.03 0.00 82 1016.0
20260503051349 2 292 0.0 0.0 0.00 0.03 0.00 82 1016.0
20260503050812 2 292 0.0 0.0 0.00 0.03 0.00 82 1016.1
20260503050312 2 292 0.0 0.0 0.00 0.03 0.00 81 1016.2
20260503045813 2 292 0.0 0.0 0.00 0.03 0.00 81 1016.2